Location: Cabeza Gorda
(40.0667°N, 4.9667°W)
Time: 18:49:09
(UTC+00:00)

IGS 5A - Pass Details

Date: 15 January 2026
Orbit: 551 x 554 km, 97.4° (Epoch: 8 January)

Event Time Altitude Azimuth Distance (km) Brightness Sun altitude
Rises 05:59:55 0° 14° (NNE) 2,735 6.9 -18.8°
Reaches altitude 10° 06:02:04 10° 17° (NNE) 1,836 6.0 -18.4°
Maximum altitude 06:06:01 69° 100° (E) 592 3.6 -17.7°
Drops below altitude 10° 06:09:57 10° 185° (S) 1,822 6.1 -17.0°
Sets 06:12:05 0° 188° (S) 2,711 6.9 -16.6°
